Location: Bogis-Bossey
(46.3500°N, 6.1667°E)
Time: 17:16:47
(UTC+00:00)

CZ-4C R/B - Pass Details

Date: 17 August 2022
Orbit: 575 x 1426 km, 63.4° (Epoch: 30 September)

Event Time Altitude Azimuth Distance (km) Brightness Sun altitude
Rises 19:26:46 0° 223° (SW) 2,925 5.2 -7.9°
Reaches altitude 10° 19:28:52 10° 225° (SW) 2,092 4.5 -8.2°
Maximum altitude 19:33:35 76° 311° (NW) 789 2.2 -9.0°
Drops below altitude 10° 19:39:28 10° 37° (NE) 2,585 4.7 -9.8°
Sets 19:42:18 0° 39° (NE) 3,675 5.4 -10.2°
